Location: Unspecified
(49.2170°N, 0.0000°E)
Time: 11:13:13
(UTC+00:00)

A-11 Canister half - Pass Details

Date: 20 June 2019
Orbit: 1526 x 1683 km, 47.3° (Epoch: 16 July)

Event Time Altitude Azimuth Distance (km) Brightness Sun altitude
Rises 05:31:01 0° 232° (SW) 4,731 11.0 12.8°
Reaches altitude 10° 05:34:09 10° 229° (SW) 3,732 10.5 13.3°
Maximum altitude 05:43:15 58° 154° (SSE) 1,753 9.6 14.7°
Drops below altitude 10° 05:52:16 10° 78° (ENE) 3,697 13.6 16.1°
Sets 05:55:21 0° 75° (ENE) 4,685 13.4 16.6°
